Location: Home
(42.5358°N, 72.7383°W)
Time: 23:45:33
(UTC-05:00)

Vanguard 3 - Pass Details

Date: 02 December 2021
Orbit: 508 x 3260 km, 33.3° (Epoch: 21 January)

Event Time Altitude Azimuth Distance (km) Brightness Sun altitude
Rises 03:35:29 0° 230° (SW) 7,020 - -37.4°
Reaches altitude 10° 03:40:17 10° 226° (SW) 6,132 - -36.5°
Exits shadow 03:46:24 24° 217° (SW) 5,059 10.8 -35.4°
Maximum altitude 03:58:48 49° 159° (SSE) 3,641 10.4 -33.1°
Drops below altitude 10° 04:13:28 10° 91° (E) 4,972 12.0 -30.4°
Sets 04:16:52 0° 86° (E) 5,661 12.6 -29.8°
